This is the latest recevied weather packets stored in our database for station/object WD0REW. If no packets are shown the sender has not sent any weather packets the latest 10 day(s).
| Time | Temp. | Humidity | Pressure | Rain* | Wind** | Luminosity | Snow |
|---|---|---|---|---|---|---|---|
| 1777221849 | 23.89° C | 57% | 1012.5 hPa | 0 mm | - | 744 W/m² | - |
| 1777221545 | 23.89° C | 56% | 1012.6 hPa | 0 mm | - | 723 W/m² | - |
| 1777221242 | 23.89° C | 56% | 1012.5 hPa | 0 mm | - | 717 W/m² | - |
| 1777220939 | 23.89° C | 58% | 1012.5 hPa | 0 mm | - | 739 W/m² | - |
| 1777220634 | 23.33° C | 60% | 1012.6 hPa | 0 mm | - | 838 W/m² | - |
| 1777220331 | 23.89° C | 58% | 1012.7 hPa | 0 mm | - | 461 W/m² | - |
| 1777220030 | 23.33° C | 58% | 1012.7 hPa | 0 mm | - | 548 W/m² | - |
| 1777219727 | 22.78° C | 60% | 1012.7 hPa | 0 mm | - | 394 W/m² | - |
| 1777219425 | 22.78° C | 58% | 1012.8 hPa | 0 mm | - | 389 W/m² | - |
| 1777219121 | 23.33° C | 58% | 1012.9 hPa | 0 mm | - | 507 W/m² | - |
| 1777218817 | 23.33° C | 59% | 1013 hPa | 0 mm | - | 647 W/m² | - |
| 1777218513 | 22.78° C | 59% | 1012.9 hPa | 0 mm | - | 627 W/m² | - |
| 1777218208 | 22.78° C | 61% | 1013 hPa | 0 mm | - | 622 W/m² | - |
| 1777217906 | 22.78° C | 59% | 1012.8 hPa | 0 mm | - | 630 W/m² | - |
| 1777217605 | 22.78° C | 61% | 1012.8 hPa | 0 mm | - | 620 W/m² | - |
| 1777217302 | 22.78° C | 60% | 1012.9 hPa | 0 mm | - | 614 W/m² | - |
| 1777216998 | 22.78° C | 60% | 1012.5 hPa | 0 mm | - | 595 W/m² | - |
| 1777216695 | 22.78° C | 59% | 1012.4 hPa | 0 mm | - | 583 W/m² | - |
| 1777216391 | 22.22° C | 60% | 1012.6 hPa | 0 mm | - | 569 W/m² | - |
| 1777216090 | 22.78° C | 61% | 1012.6 hPa | 0 mm | - | 558 W/m² | - |
| 1777215785 | 22.22° C | 60% | 1012.3 hPa | 0 mm | - | 548 W/m² | - |
| 1777215481 | 21.67° C | 65% | 1012.6 hPa | 0 mm | - | 513 W/m² | - |
| 1777215178 | 21.11° C | 64% | 1012.7 hPa | 0 mm | - | 525 W/m² | - |
| 1777214873 | 20.56° C | 66% | 1012.6 hPa | 0 mm | - | 509 W/m² | - |
| 1777214572 | 20.56° C | 65% | 1012.3 hPa | 0 mm | - | 154 W/m² | - |
* Rain latest hour (hover to see other rain measurements)
** Current wind speed in m/s (hover to see current wind gust speed)